| time (UTC) | temp F | wind direction | speed MPH | gust MPH | rain 1hr in | rain 24hr in | rain mn in | humidity % | barometer mb |
| 20260507103702 | 37 | 284 | 0.0 | 0.0 | 0.00 | 0.01 | 0.01 | 94 | 1011.7 |
| 20260507103159 | 37 | 256 | 0.0 | 0.0 | 0.00 | 0.01 | 0.01 | 94 | 1011.9 |
| 20260507102655 | 37 | 219 | 1.0 | 1.0 | 0.00 | 0.01 | 0.01 | 94 | 1011.8 |
| 20260507102152 | 36 | 190 | 2.0 | 2.0 | 0.00 | 0.01 | 0.01 | 94 | 1011.6 |
| 20260507101648 | 36 | 273 | 0.0 | 0.0 | 0.00 | 0.01 | 0.01 | 94 | 1011.5 |
| 20260507101144 | 36 | 308 | 1.0 | 1.0 | 0.00 | 0.01 | 0.01 | 94 | 1011.3 |
| 20260507100641 | 36 | 321 | 1.0 | 2.0 | 0.00 | 0.01 | 0.01 | 93 | 1011.7 |
| 20260507100140 | 36 | 307 | 1.0 | 1.0 | 0.00 | 0.01 | 0.01 | 93 | 1011.6 |
| 20260507095637 | 37 | 286 | 1.0 | 1.0 | 0.00 | 0.01 | 0.01 | 93 | 1011.6 |
| 20260507095133 | 37 | 231 | 1.0 | 1.0 | 0.00 | 0.01 | 0.01 | 92 | 1011.5 |
| 20260507094630 | 37 | 292 | 0.0 | 0.0 | 0.00 | 0.01 | 0.01 | 91 | 1011.4 |
| 20260507094127 | 37 | 292 | 0.0 | 0.0 | 0.00 | 0.01 | 0.01 | 91 | 1011.6 |
| 20260507093624 | 38 | 296 | 1.0 | 1.0 | 0.00 | 0.01 | 0.01 | 90 | 1011.7 |
| 20260507093123 | 38 | 262 | 0.0 | 1.0 | 0.00 | 0.01 | 0.01 | 90 | 1011.8 |
| 20260507092619 | 38 | 268 | 0.0 | 0.0 | 0.00 | 0.01 | 0.01 | 90 | 1011.7 |
| 20260507092115 | 38 | 272 | 0.0 | 0.0 | 0.00 | 0.01 | 0.01 | 89 | 1011.6 |
| 20260507091612 | 38 | 264 | 0.0 | 0.0 | 0.00 | 0.01 | 0.01 | 88 | 1011.8 |
| 20260507091108 | 39 | 287 | 0.0 | 0.0 | 0.00 | 0.01 | 0.01 | 87 | 1011.6 |
| 20260507090604 | 39 | 339 | 1.0 | 1.0 | 0.00 | 0.01 | 0.01 | 86 | 1011.6 |
| 20260507085558 | 39 | 297 | 1.0 | 1.0 | 0.00 | 0.01 | 0.01 | 86 | 1011.5 |
| 20260507085055 | 40 | 323 | 1.0 | 1.0 | 0.00 | 0.01 | 0.01 | 85 | 1011.8 |
| 20260507084551 | 40 | 283 | 0.0 | 0.0 | 0.00 | 0.01 | 0.01 | 84 | 1011.6 |
| 20260507084049 | 41 | 273 | 0.0 | 0.0 | 0.00 | 0.01 | 0.01 | 83 | 1011.7 |
| 20260507083544 | 41 | 295 | 0.0 | 0.0 | 0.00 | 0.01 | 0.01 | 82 | 1011.6 |
| 20260507083037 | 41 | 313 | 1.0 | 1.0 | 0.00 | 0.01 | 0.01 | 81 | 1011.6 |
| 20260507082532 | 41 | 4 | 2.0 | 3.0 | 0.00 | 0.01 | 0.01 | 81 | 1011.5 |
| 20260507082029 | 41 | 312 | 3.0 | 3.0 | 0.00 | 0.01 | 0.01 | 80 | 1011.5 |
| 20260507081525 | 42 | 356 | 1.0 | 1.0 | 0.00 | 0.01 | 0.01 | 81 | 1011.3 |
| 20260507081022 | 42 | 295 | 3.0 | 3.0 | 0.00 | 0.01 | 0.01 | 81 | 1011.7 |
| 20260507080518 | 42 | 297 | 1.0 | 1.0 | 0.00 | 0.01 | 0.01 | 83 | 1011.5 |
| 20260507080015 | 42 | 278 | 1.0 | 1.0 | 0.00 | 0.01 | 0.01 | 83 | 1011.6 |
| 20260507075510 | 42 | 333 | 1.0 | 1.0 | 0.00 | 0.01 | 0.01 | 83 | 1011.5 |
| 20260507075007 | 42 | 286 | 1.0 | 1.0 | 0.00 | 0.01 | 0.01 | 84 | 1011.7 |
| 20260507074503 | 42 | 57 | 2.0 | 2.0 | 0.00 | 0.01 | 0.01 | 84 | 1011.6 |
| 20260507074002 | 42 | 267 | 0.0 | 0.0 | 0.00 | 0.01 | 0.01 | 83 | 1011.5 |
| 20260507073458 | 42 | 303 | 1.0 | 1.0 | 0.00 | 0.01 | 0.01 | 83 | 1011.4 |
| 20260507072954 | 42 | 305 | 0.0 | 0.0 | 0.00 | 0.01 | 0.01 | 83 | 1011.6 |
| 20260507072452 | 42 | 14 | 1.0 | 1.0 | 0.00 | 0.01 | 0.01 | 82 | 1011.4 |
| 20260507071949 | 42 | 73 | 1.0 | 2.0 | 0.00 | 0.01 | 0.01 | 83 | 1011.4 |
| 20260507071446 | 42 | 5 | 1.0 | 2.0 | 0.00 | 0.01 | 0.01 | 83 | 1011.6 |
| 20260507070943 | 42 | 53 | 0.0 | 1.0 | 0.00 | 0.01 | 0.01 | 83 | 1011.5 |
| 20260507070440 | 43 | 6 | 4.0 | 5.0 | 0.00 | 0.01 | 0.01 | 83 | 1011.4 |
| 20260507065936 | 43 | 35 | 1.0 | 2.0 | 0.00 | 0.01 | 0.01 | 84 | 1011.5 |
| 20260507065433 | 43 | 358 | 5.0 | 5.0 | 0.00 | 0.01 | 0.01 | 85 | 1011.5 |
| 20260507064930 | 43 | 359 | 5.0 | 6.0 | 0.00 | 0.01 | 0.01 | 85 | 1011.6 |
| 20260507064429 | 43 | 280 | 2.0 | 3.0 | 0.00 | 0.01 | 0.01 | 86 | 1011.4 |
| 20260507063926 | 44 | 351 | 2.0 | 2.0 | 0.00 | 0.01 | 0.01 | 86 | 1011.3 |
| 20260507063423 | 44 | 354 | 6.0 | 7.0 | 0.00 | 0.01 | 0.01 | 87 | 1011.1 |
| 20260507062920 | 44 | 351 | 4.0 | 5.0 | 0.00 | 0.01 | 0.01 | 90 | 1010.9 |
| 20260507062417 | 44 | 8 | 3.0 | 3.0 | 0.00 | 0.01 | 0.01 | 92 | 1011.1 |
| 20260507061914 | 44 | 316 | 3.0 | 5.0 | 0.00 | 0.01 | 0.01 | 94 | 1011.3 |
| 20260507061413 | 44 | 327 | 1.0 | 2.0 | 0.00 | 0.01 | 0.01 | 95 | 1011.0 |
| 20260507060911 | 44 | 293 | 2.0 | 3.0 | 0.00 | 0.01 | 0.01 | 96 | 1011.0 |
| 20260507060407 | 44 | 276 | 0.0 | 0.0 | 0.00 | 0.01 | 0.01 | 96 | 1011.0 |
| 20260507055904 | 44 | 234 | 1.0 | 1.0 | 0.00 | 0.01 | 0.01 | 96 | 1010.9 |
| 20260507055359 | 44 | 281 | 0.0 | 1.0 | 0.00 | 0.01 | 0.01 | 96 | 1010.6 |
| 20260507054856 | 44 | 262 | 0.0 | 0.0 | 0.00 | 0.01 | 0.01 | 96 | 1010.4 |
| 20260507054352 | 44 | 251 | 0.0 | 0.0 | 0.00 | 0.01 | 0.01 | 96 | 1010.5 |
| 20260507053849 | 44 | 255 | 0.0 | 0.0 | 0.00 | 0.01 | 0.01 | 96 | 1010.8 |
| 20260507053347 | 44 | 248 | 0.0 | 0.0 | 0.00 | 0.01 | 0.01 | 96 | 1010.7 |
| 20260507052846 | 44 | 253 | 0.0 | 0.0 | 0.00 | 0.01 | 0.01 | 96 | 1010.9 |
| 20260507052342 | 44 | 241 | 0.0 | 1.0 | 0.00 | 0.01 | 0.01 | 96 | 1011.0 |
| 20260507051840 | 44 | 262 | 0.0 | 0.0 | 0.07 | 0.01 | 0.01 | 96 | 1010.8 |
| 20260507051337 | 44 | 232 | 1.0 | 1.0 | 0.07 | 0.01 | 0.01 | 96 | 1011.0 |
| 20260507050834 | 44 | 266 | 0.0 | 0.0 | 0.00 | 0.00 | 0.00 | 96 | 1011.2 |
| 20260507050330 | 44 | 256 | 0.0 | 0.0 | 0.00 | 0.00 | 0.00 | 95 | 1011.1 |
| 20260507045827 | 44 | 248 | 0.0 | 0.0 | 0.00 | 0.00 | 0.00 | 95 | 1010.9 |
| 20260507045324 | 44 | 258 | 0.0 | 0.0 | 0.00 | 0.00 | 0.00 | 95 | 1011.0 |
| 20260507044821 | 44 | 240 | 1.0 | 1.0 | 0.00 | 0.00 | 0.00 | 95 | 1011.0 |
| 20260507044318 | 44 | 253 | 0.0 | 1.0 | 0.00 | 0.00 | 0.00 | 95 | 1011.1 |
| 20260507043813 | 44 | 270 | 0.0 | 0.0 | 0.00 | 0.00 | 0.00 | 95 | 1011.1 |
| 20260507043310 | 44 | 256 | 0.0 | 0.0 | 0.00 | 0.00 | 0.00 | 95 | 1011.3 |
| 20260507042807 | 44 | 277 | 0.0 | 1.0 | 0.00 | 0.00 | 0.00 | 95 | 1010.9 |
| 20260507042306 | 44 | 273 | 0.0 | 1.0 | 0.00 | 0.00 | 0.00 | 95 | 1010.9 |
| 20260507041759 | 44 | 327 | 2.0 | 2.0 | 0.00 | 0.00 | 0.00 | 95 | 1010.8 |
| 20260507041256 | 44 | 260 | 0.0 | 0.0 | 0.00 | 0.00 | 0.00 | 94 | 1010.8 |
| 20260507040753 | 44 | 254 | 0.0 | 0.0 | 0.00 | 0.00 | 0.00 | 94 | 1010.7 |
| 20260507040249 | 44 | 224 | 1.0 | 1.0 | 0.00 | 0.00 | 0.00 | 94 | 1010.7 |
| 20260507035745 | 44 | 203 | 2.0 | 2.0 | 0.00 | 0.43 | 0.43 | 94 | 1010.6 |
| 20260507035240 | 44 | 201 | 1.0 | 2.0 | 0.00 | 0.43 | 0.43 | 93 | 1010.4 |
| 20260507034738 | 44 | 274 | 0.0 | 0.0 | 0.00 | 0.43 | 0.43 | 93 | 1010.4 |
| 20260507034235 | 44 | 275 | 0.0 | 0.0 | 0.00 | 0.43 | 0.43 | 93 | 1010.5 |
| 20260507033734 | 45 | 258 | 0.0 | 0.0 | 0.00 | 0.43 | 0.43 | 93 | 1010.5 |
| 20260507033231 | 45 | 251 | 0.0 | 0.0 | 0.00 | 0.43 | 0.43 | 93 | 1010.7 |
| 20260507032728 | 45 | 256 | 0.0 | 0.0 | 0.00 | 0.43 | 0.43 | 93 | 1010.6 |
| 20260507032224 | 45 | 252 | 0.0 | 0.0 | 0.00 | 0.43 | 0.43 | 93 | 1010.9 |
| 20260507031721 | 45 | 244 | 1.0 | 1.0 | 0.00 | 0.43 | 0.43 | 93 | 1010.8 |
| 20260507031217 | 45 | 249 | 0.0 | 0.0 | 0.00 | 0.43 | 0.43 | 93 | 1010.7 |
| 20260507030714 | 45 | 231 | 1.0 | 2.0 | 0.00 | 0.43 | 0.43 | 93 | 1010.9 |
| 20260507030212 | 45 | 236 | 2.0 | 2.0 | 0.00 | 0.43 | 0.43 | 93 | 1011.1 |
| 20260507025709 | 45 | 232 | 2.0 | 2.0 | 0.00 | 0.43 | 0.43 | 93 | 1011.0 |
| 20260507025206 | 45 | 244 | 1.0 | 1.0 | 0.00 | 0.43 | 0.43 | 93 | 1010.9 |
| 20260507024704 | 45 | 235 | 2.0 | 2.0 | 0.00 | 0.43 | 0.43 | 93 | 1011.0 |
| 20260507024201 | 45 | 252 | 1.0 | 2.0 | 0.00 | 0.43 | 0.43 | 94 | 1010.5 |
| 20260507023656 | 45 | 217 | 2.0 | 2.0 | 0.00 | 0.43 | 0.43 | 94 | 1010.8 |
| 20260507023154 | 45 | 247 | 2.0 | 2.0 | 0.00 | 0.43 | 0.43 | 94 | 1010.9 |
| 20260507022651 | 45 | 221 | 1.0 | 2.0 | 0.00 | 0.43 | 0.43 | 94 | 1011.2 |
| 20260507022146 | 45 | 258 | 0.0 | 0.0 | 0.00 | 0.43 | 0.43 | 94 | 1010.9 |
| 20260507021643 | 45 | 244 | 1.0 | 2.0 | 0.00 | 0.43 | 0.43 | 94 | 1011.0 |
| 20260507021138 | 45 | 248 | 0.0 | 1.0 | 0.00 | 0.43 | 0.43 | 94 | 1011.2 |
| 20260507020637 | 45 | 268 | 0.0 | 0.0 | 0.00 | 0.43 | 0.43 | 94 | 1011.0 |
| 20260507020132 | 45 | 257 | 0.0 | 0.0 | 0.00 | 0.43 | 0.43 | 94 | 1011.1 |
| 20260507015631 | 45 | 249 | 1.0 | 1.0 | 0.00 | 0.43 | 0.43 | 94 | 1011.2 |
| 20260507015128 | 45 | 234 | 2.0 | 2.0 | 0.00 | 0.43 | 0.43 | 94 | 1010.9 |
| 20260507014625 | 45 | 249 | 1.0 | 1.0 | 0.00 | 0.43 | 0.43 | 94 | 1011.1 |
| 20260507014121 | 45 | 265 | 0.0 | 0.0 | 0.00 | 0.43 | 0.43 | 93 | 1011.3 |
| 20260507013618 | 45 | 248 | 0.0 | 1.0 | 0.00 | 0.43 | 0.43 | 93 | 1011.5 |
| 20260507013114 | 46 | 267 | 0.0 | 0.0 | 0.00 | 0.43 | 0.43 | 93 | 1011.2 |
| 20260507012612 | 46 | 257 | 0.0 | 0.0 | 0.00 | 0.43 | 0.43 | 92 | 1011.2 |
| 20260507012107 | 46 | 205 | 2.0 | 2.0 | 0.00 | 0.43 | 0.43 | 92 | 1011.2 |
| 20260507011606 | 46 | 251 | 1.0 | 1.0 | 0.00 | 0.43 | 0.43 | 92 | 1011.1 |
| 20260507011101 | 46 | 281 | 0.0 | 0.0 | 0.00 | 0.43 | 0.43 | 91 | 1010.9 |
| 20260507010556 | 46 | 278 | 1.0 | 1.0 | 0.00 | 0.43 | 0.43 | 91 | 1011.2 |
| 20260507010052 | 46 | 269 | 0.0 | 1.0 | 0.00 | 0.43 | 0.43 | 91 | 1010.9 |
| 20260507005550 | 46 | 278 | 0.0 | 1.0 | 0.00 | 0.43 | 0.43 | 91 | 1010.9 |
| 20260507005046 | 46 | 281 | 1.0 | 1.0 | 0.00 | 0.43 | 0.43 | 91 | 1010.9 |
| 20260507004543 | 46 | 274 | 0.0 | 0.0 | 0.00 | 0.43 | 0.43 | 91 | 1010.8 |
| 20260507004041 | 46 | 270 | 0.0 | 1.0 | 0.00 | 0.43 | 0.43 | 91 | 1010.6 |
| 20260507003537 | 46 | 282 | 0.0 | 1.0 | 0.00 | 0.43 | 0.43 | 91 | 1010.8 |
| 20260507003032 | 46 | 281 | 1.0 | 1.0 | 0.00 | 0.43 | 0.43 | 91 | 1010.7 |
| 20260507002529 | 46 | 254 | 0.0 | 1.0 | 0.00 | 0.43 | 0.43 | 91 | 1010.7 |
| 20260507002025 | 46 | 264 | 0.0 | 0.0 | 0.00 | 0.43 | 0.43 | 91 | 1010.6 |
| 20260507001521 | 46 | 258 | 0.0 | 0.0 | 0.00 | 0.43 | 0.43 | 91 | 1010.4 |
| 20260507001019 | 46 | 286 | 2.0 | 2.0 | 0.00 | 0.43 | 0.43 | 91 | 1010.6 |
| 20260507000515 | 46 | 265 | 0.0 | 0.0 | 0.00 | 0.43 | 0.43 | 91 | 1010.6 |
| 20260507000010 | 46 | 261 | 0.0 | 0.0 | 0.00 | 0.43 | 0.43 | 91 | 1010.3 |
| 20260506235508 | 46 | 266 | 0.0 | 0.0 | 0.00 | 0.43 | 0.43 | 91 | 1010.1 |
| 20260506235003 | 46 | 270 | 0.0 | 0.0 | 0.00 | 0.43 | 0.43 | 91 | 1010.2 |
| 20260506234501 | 46 | 263 | 0.0 | 1.0 | 0.00 | 0.43 | 0.43 | 91 | 1010.1 |
| 20260506233958 | 46 | 269 | 1.0 | 2.0 | 0.00 | 0.43 | 0.43 | 91 | 1010.1 |
| 20260506233455 | 46 | 273 | 2.0 | 2.0 | 0.00 | 0.43 | 0.43 | 91 | 1010.1 |
| 20260506232951 | 46 | 273 | 0.0 | 0.0 | 0.00 | 0.43 | 0.43 | 90 | 1010.2 |
| 20260506232448 | 46 | 267 | 0.0 | 0.0 | 0.00 | 0.43 | 0.43 | 90 | 1010.3 |
| 20260506231943 | 46 | 254 | 0.0 | 0.0 | 0.00 | 0.43 | 0.43 | 90 | 1010.0 |
| 20260506231441 | 46 | 270 | 0.0 | 1.0 | 0.00 | 0.43 | 0.43 | 90 | 1010.0 |
| 20260506230938 | 46 | 260 | 1.0 | 1.0 | 0.00 | 0.43 | 0.43 | 90 | 1009.8 |
| 20260506230434 | 46 | 255 | 1.0 | 1.0 | 0.00 | 0.43 | 0.43 | 90 | 1009.9 |
| 20260506225931 | 46 | 275 | 2.0 | 2.0 | 0.00 | 0.43 | 0.43 | 90 | 1010.0 |
| 20260506225429 | 46 | 275 | 0.0 | 1.0 | 0.00 | 0.43 | 0.43 | 90 | 1009.9 |
| 20260506224925 | 47 | 278 | 2.0 | 3.0 | 0.00 | 0.43 | 0.43 | 90 | 1009.7 |
| 20260506224423 | 47 | 329 | 2.0 | 2.0 | 0.00 | 0.43 | 0.43 | 90 | 1009.5 |
| 20260506223919 | 47 | 178 | 2.0 | 5.0 | 0.00 | 0.43 | 0.43 | 90 | 1009.7 |
| 20260506223414 | 47 | 267 | 3.0 | 3.0 | 0.00 | 0.43 | 0.43 | 90 | 1009.4 |
| 20260506222912 | 47 | 299 | 5.0 | 7.0 | 0.00 | 0.43 | 0.43 | 90 | 1009.7 |
| 20260506222409 | 47 | 251 | 3.0 | 5.0 | 0.00 | 0.43 | 0.43 | 89 | 1009.5 |
| 20260506221906 | 47 | 331 | 3.0 | 3.0 | 0.00 | 0.43 | 0.43 | 89 | 1009.4 |
| 20260506221403 | 47 | 300 | 4.0 | 7.0 | 0.00 | 0.43 | 0.43 | 89 | 1009.4 |
| 20260506220900 | 47 | 342 | 8.0 | 9.0 | 0.00 | 0.43 | 0.43 | 90 | 1009.3 |
| 20260506220355 | 47 | 303 | 5.0 | 6.0 | 0.00 | 0.43 | 0.43 | 90 | 1009.3 |
| 20260506215852 | 48 | 271 | 9.0 | 10.0 | 0.00 | 0.43 | 0.43 | 90 | 1009.3 |
| 20260506215348 | 48 | 309 | 4.0 | 5.0 | 0.00 | 0.43 | 0.43 | 90 | 1009.3 |
| 20260506214844 | 48 | 311 | 2.0 | 2.0 | 0.00 | 0.43 | 0.43 | 90 | 1009.3 |
| 20260506214341 | 48 | 278 | 2.0 | 2.0 | 0.00 | 0.43 | 0.43 | 90 | 1009.1 |
| 20260506213839 | 48 | 271 | 4.0 | 5.0 | 0.00 | 0.43 | 0.43 | 91 | 1008.9 |
| 20260506213336 | 48 | 322 | 3.0 | 5.0 | 0.00 | 0.43 | 0.43 | 91 | 1008.9 |
| 20260506212833 | 48 | 297 | 3.0 | 3.0 | 0.00 | 0.43 | 0.43 | 92 | 1008.9 |
| 20260506212329 | 48 | 46 | 3.0 | 5.0 | 0.00 | 0.43 | 0.43 | 94 | 1008.9 |
| 20260506211825 | 48 | 284 | 4.0 | 6.0 | 0.00 | 0.43 | 0.43 | 94 | 1008.4 |
| 20260506211321 | 48 | 260 | 1.0 | 2.0 | 0.00 | 0.43 | 0.43 | 94 | 1008.3 |
| 20260506210818 | 48 | 279 | 1.0 | 1.0 | 0.00 | 0.43 | 0.43 | 94 | 1008.5 |
| 20260506210315 | 48 | 293 | 1.0 | 2.0 | 0.05 | 0.43 | 0.43 | 94 | 1008.3 |
| 20260506205812 | 48 | 332 | 5.0 | 6.0 | 0.05 | 0.43 | 0.43 | 94 | 1008.2 |
| 20260506205308 | 48 | 340 | 2.0 | 2.0 | 0.00 | 0.42 | 0.42 | 94 | 1008.3 |
| 20260506204804 | 48 | 311 | 5.0 | 7.0 | 0.00 | 0.42 | 0.42 | 94 | 1008.3 |
| 20260506204302 | 48 | 315 | 2.0 | 2.0 | 0.07 | 0.42 | 0.42 | 94 | 1007.9 |
| 20260506203800 | 48 | 331 | 2.0 | 2.0 | 0.07 | 0.42 | 0.42 | 94 | 1008.2 |
| 20260506203257 | 48 | 335 | 3.0 | 3.0 | 0.00 | 0.41 | 0.41 | 94 | 1007.8 |
| 20260506202754 | 48 | 20 | 3.0 | 3.0 | 0.00 | 0.41 | 0.41 | 94 | 1007.6 |
| 20260506202251 | 48 | 307 | 1.0 | 2.0 | 0.00 | 0.41 | 0.41 | 95 | 1007.7 |
| 20260506201747 | 48 | 44 | 0.0 | 1.0 | 0.00 | 0.41 | 0.41 | 95 | 1007.6 |
| 20260506201244 | 48 | 348 | 1.0 | 1.0 | 0.00 | 0.41 | 0.41 | 94 | 1007.4 |
| 20260506200741 | 48 | 4 | 2.0 | 2.0 | 0.00 | 0.41 | 0.41 | 95 | 1007.3 |
| 20260506200237 | 48 | 313 | 1.0 | 1.0 | 0.05 | 0.41 | 0.41 | 95 | 1007.4 |
| 20260506195734 | 48 | 278 | 3.0 | 5.0 | 0.05 | 0.41 | 0.41 | 95 | 1007.6 |
| 20260506195230 | 48 | 337 | 2.0 | 2.0 | 0.00 | 0.40 | 0.40 | 95 | 1007.7 |
| 20260506194728 | 48 | 282 | 8.0 | 10.0 | 0.07 | 0.40 | 0.40 | 95 | 1007.6 |
| 20260506194224 | 49 | 268 | 3.0 | 3.0 | 0.12 | 0.40 | 0.40 | 95 | 1007.5 |
| 20260506193722 | 49 | 297 | 3.0 | 3.0 | 0.05 | 0.39 | 0.39 | 95 | 1007.3 |
| 20260506193219 | 49 | 250 | 0.0 | 0.0 | 0.00 | 0.38 | 0.38 | 95 | 1007.5 |
| 20260506192715 | 49 | 285 | 0.0 | 0.0 | 0.00 | 0.38 | 0.38 | 95 | 1007.2 |
| 20260506192212 | 49 | 275 | 0.0 | 0.0 | 0.07 | 0.38 | 0.38 | 95 | 1007.3 |
| 20260506191709 | 49 | 50 | 1.0 | 1.0 | 0.07 | 0.38 | 0.38 | 95 | 1007.0 |
| 20260506191205 | 48 | 75 | 2.0 | 2.0 | 0.00 | 0.37 | 0.37 | 94 | 1007.1 |
| 20260506190702 | 49 | 63 | 1.0 | 1.0 | 0.00 | 0.37 | 0.37 | 94 | 1007.1 |
| 20260506190153 | 49 | 70 | 2.0 | 2.0 | 0.00 | 0.37 | 0.37 | 94 | 1006.8 |
| 20260506185650 | 49 | 225 | 0.0 | 1.0 | 0.00 | 0.37 | 0.37 | 94 | 1006.8 |
| 20260506185146 | 49 | 323 | 1.0 | 1.0 | 0.00 | 0.37 | 0.37 | 94 | 1006.9 |
| 20260506184644 | 49 | 308 | 1.0 | 2.0 | 0.00 | 0.37 | 0.37 | 94 | 1006.9 |
| 20260506184141 | 49 | 2 | 0.0 | 0.0 | 0.00 | 0.37 | 0.37 | 94 | 1006.9 |
| 20260506183638 | 49 | 324 | 4.0 | 5.0 | 0.00 | 0.37 | 0.37 | 94 | 1006.8 |
| 20260506183134 | 49 | 280 | 0.0 | 0.0 | 0.00 | 0.37 | 0.37 | 94 | 1006.5 |
| 20260506182631 | 49 | 288 | 3.0 | 5.0 | 0.00 | 0.37 | 0.37 | 94 | 1006.5 |
| 20260506182128 | 49 | 279 | 5.0 | 6.0 | 0.00 | 0.37 | 0.37 | 94 | 1006.5 |
| 20260506181626 | 49 | 323 | 3.0 | 3.0 | 0.00 | 0.37 | 0.37 | 94 | 1006.3 |
| 20260506181123 | 49 | 300 | 1.0 | 1.0 | 0.00 | 0.37 | 0.37 | 94 | 1006.2 |
| 20260506180620 | 49 | 338 | 2.0 | 2.0 | 0.00 | 0.37 | 0.37 | 94 | 1006.3 |
| 20260506180116 | 50 | 352 | 4.0 | 5.0 | 0.05 | 0.37 | 0.37 | 94 | 1006.3 |
| 20260506175613 | 50 | 11 | 6.0 | 7.0 | 0.05 | 0.37 | 0.37 | 94 | 1006.2 |
| 20260506175108 | 51 | 357 | 5.0 | 7.0 | 0.05 | 0.37 | 0.37 | 93 | 1006.3 |
| 20260506174608 | 51 | 295 | 3.0 | 5.0 | 0.00 | 0.36 | 0.36 | 94 | 1006.0 |
| 20260506174103 | 52 | 297 | 3.0 | 3.0 | 0.00 | 0.36 | 0.36 | 94 | 1006.0 |
| 20260506173601 | 52 | 309 | 1.0 | 1.0 | 0.00 | 0.36 | 0.36 | 94 | 1005.8 |
| 20260506173058 | 52 | 314 | 3.0 | 3.0 | 0.00 | 0.36 | 0.36 | 93 | 1005.7 |
| 20260506172556 | 52 | 312 | 3.0 | 3.0 | 0.00 | 0.36 | 0.36 | 93 | 1005.5 |
| 20260506172051 | 54 | 305 | 10.0 | 14.0 | 0.00 | 0.36 | 0.36 | 92 | 1005.5 |
| 20260506171549 | 57 | 309 | 7.0 | 9.0 | 0.00 | 0.36 | 0.36 | 92 | 1005.4 |
| 20260506171047 | 58 | 247 | 2.0 | 2.0 | 0.07 | 0.36 | 0.36 | 95 | 1005.2 |
| 20260506170544 | 58 | 247 | 4.0 | 5.0 | 0.07 | 0.36 | 0.36 | 94 | 1005.4 |
| 20260506170041 | 58 | 225 | 3.0 | 3.0 | 0.00 | 0.35 | 0.35 | 94 | 1005.6 |
| 20260506165540 | 58 | 223 | 3.0 | 3.0 | 0.00 | 0.35 | 0.35 | 94 | 1005.5 |
| 20260506165036 | 58 | 227 | 3.0 | 3.0 | 0.07 | 0.35 | 0.35 | 94 | 1005.5 |
| 20260506164533 | 58 | 199 | 5.0 | 6.0 | 0.07 | 0.35 | 0.35 | 94 | 1005.6 |
| 20260506164030 | 58 | 221 | 6.0 | 7.0 | 0.00 | 0.34 | 0.34 | 94 | 1005.4 |
| 20260506163526 | 58 | 241 | 3.0 | 5.0 | 0.00 | 0.34 | 0.34 | 93 | 1005.5 |
| 20260506163021 | 58 | 249 | 1.0 | 1.0 | 0.00 | 0.34 | 0.34 | 93 | 1005.5 |
| 20260506162518 | 58 | 245 | 7.0 | 8.0 | 0.00 | 0.34 | 0.34 | 93 | 1005.5 |
| 20260506162015 | 58 | 212 | 5.0 | 6.0 | 0.00 | 0.34 | 0.34 | 93 | 1005.4 |
| 20260506161513 | 57 | 210 | 9.0 | 9.0 | 0.00 | 0.34 | 0.34 | 93 | 1005.4 |
| 20260506161009 | 57 | 221 | 5.0 | 6.0 | 0.00 | 0.34 | 0.34 | 93 | 1005.7 |
| 20260506160507 | 57 | 221 | 6.0 | 6.0 | 0.00 | 0.34 | 0.34 | 93 | 1005.5 |
| 20260506160004 | 57 | 234 | 3.0 | 3.0 | 0.05 | 0.34 | 0.34 | 93 | 1005.7 |
| 20260506155502 | 57 | 215 | 6.0 | 7.0 | 0.05 | 0.34 | 0.34 | 93 | 1005.5 |
| 20260506153634 | 57 | 224 | 4.0 | 6.0 | 0.07 | 0.33 | 0.33 | 94 | 1005.6 |
| 20260506153131 | 57 | 240 | 1.0 | 1.0 | 0.05 | 0.32 | 0.32 | 94 | 1005.8 |
| 20260506152628 | 57 | 218 | 5.0 | 6.0 | 0.05 | 0.32 | 0.32 | 94 | 1006.0 |
| 20260506152126 | 57 | 215 | 5.0 | 6.0 | 0.00 | 0.31 | 0.31 | 94 | 1006.0 |
| 20260506151624 | 57 | 231 | 5.0 | 6.0 | 0.07 | 0.31 | 0.31 | 95 | 1006.0 |
| 20260506151121 | 57 | 215 | 3.0 | 6.0 | 0.07 | 0.31 | 0.31 | 95 | 1005.7 |
| 20260506150618 | 57 | 254 | 0.0 | 1.0 | 0.00 | 0.30 | 0.30 | 95 | 1005.8 |
| 20260506150115 | 57 | 260 | 2.0 | 2.0 | 0.05 | 0.30 | 0.30 | 95 | 1005.9 |
| 20260506145612 | 57 | 222 | 3.0 | 3.0 | 0.05 | 0.30 | 0.30 | 96 | 1005.9 |
| 20260506145108 | 57 | 228 | 1.0 | 2.0 | 0.00 | 0.29 | 0.29 | 96 | 1005.6 |
| 20260506144605 | 57 | 275 | 0.0 | 1.0 | 0.00 | 0.29 | 0.29 | 97 | 1005.5 |
| 20260506144102 | 56 | 257 | 0.0 | 0.0 | 0.07 | 0.29 | 0.29 | 97 | 1005.6 |
| 20260506143600 | 56 | 267 | 2.0 | 2.0 | 0.07 | 0.29 | 0.29 | 96 | 1005.6 |
| 20260506143058 | 56 | 258 | 0.0 | 1.0 | 0.00 | 0.28 | 0.28 | 96 | 1005.8 |
| 20260506142556 | 56 | 266 | 0.0 | 0.0 | 0.00 | 0.28 | 0.28 | 97 | 1005.7 |
| 20260506142054 | 55 | 265 | 1.0 | 1.0 | 0.00 | 0.28 | 0.28 | 96 | 1005.8 |
| 20260506141551 | 55 | 288 | 1.0 | 1.0 | 0.00 | 0.28 | 0.28 | 97 | 1005.9 |
| 20260506141050 | 54 | 296 | 1.0 | 1.0 | 0.05 | 0.28 | 0.28 | 97 | 1005.9 |
| 20260506140547 | 54 | 271 | 0.0 | 0.0 | 0.05 | 0.28 | 0.28 | 97 | 1006.1 |
| 20260506140044 | 53 | 282 | 0.0 | 1.0 | 0.07 | 0.27 | 0.27 | 97 | 1005.9 |
| 20260506135541 | 53 | 293 | 1.0 | 1.0 | 0.12 | 0.27 | 0.27 | 96 | 1005.9 |
| 20260506135037 | 53 | 279 | 0.0 | 0.0 | 0.12 | 0.26 | 0.26 | 96 | 1006.1 |
| 20260506134533 | 53 | 298 | 0.0 | 0.0 | 0.12 | 0.25 | 0.25 | 96 | 1006.2 |
| 20260506134029 | 52 | 255 | 0.0 | 0.0 | 0.12 | 0.24 | 0.24 | 96 | 1006.4 |
| 20260506133527 | 51 | 315 | 1.0 | 1.0 | 0.14 | 0.23 | 0.23 | 96 | 1006.5 |
| 20260506133023 | 51 | 332 | 1.0 | 2.0 | 0.12 | 0.22 | 0.22 | 96 | 1006.5 |
| 20260506132521 | 51 | 198 | 1.0 | 1.0 | 0.12 | 0.21 | 0.21 | 96 | 1006.5 |
| 20260506132018 | 51 | 229 | 0.0 | 0.0 | 0.12 | 0.20 | 0.20 | 96 | 1006.8 |
| 20260506131515 | 51 | 220 | 1.0 | 2.0 | 0.17 | 0.19 | 0.19 | 96 | 1007.1 |
| 20260506131011 | 51 | 295 | 1.0 | 1.0 | 0.24 | 0.18 | 0.18 | 96 | 1006.9 |
| 20260506130508 | 51 | 280 | 1.0 | 2.0 | 0.24 | 0.16 | 0.16 | 96 | 1006.8 |
| 20260506130006 | 51 | 271 | 0.0 | 0.0 | 0.19 | 0.14 | 0.14 | 96 | 1007.1 |
| 20260506125504 | 51 | 255 | 0.0 | 0.0 | 0.14 | 0.12 | 0.12 | 95 | 1006.9 |
| 20260506125001 | 51 | 267 | 0.0 | 0.0 | 0.12 | 0.11 | 0.11 | 95 | 1007.0 |
| 20260506124459 | 51 | 267 | 0.0 | 0.0 | 0.05 | 0.10 | 0.10 | 96 | 1006.6 |
| 20260506123957 | 51 | 251 | 0.0 | 0.0 | 0.07 | 0.09 | 0.09 | 95 | 1006.5 |
| 20260506123454 | 51 | 262 | 0.0 | 0.0 | 0.07 | 0.09 | 0.09 | 95 | 1006.4 |
| 20260506122952 | 51 | 289 | 0.0 | 0.0 | 0.00 | 0.08 | 0.08 | 95 | 1006.3 |
| 20260506122448 | 51 | 323 | 0.0 | 0.0 | 0.00 | 0.08 | 0.08 | 95 | 1006.2 |
| 20260506121947 | 51 | 222 | 0.0 | 0.0 | 0.00 | 0.08 | 0.08 | 95 | 1006.2 |
| 20260506121444 | 50 | 296 | 1.0 | 1.0 | 0.05 | 0.08 | 0.08 | 95 | 1006.4 |
| 20260506120940 | 50 | 38 | 3.0 | 3.0 | 0.05 | 0.08 | 0.08 | 95 | 1006.3 |
| 20260506120438 | 50 | 71 | 1.0 | 2.0 | 0.00 | 0.07 | 0.07 | 95 | 1006.5 |
| 20260506115935 | 50 | 283 | 0.0 | 0.0 | 0.00 | 0.07 | 0.07 | 95 | 1006.8 |
| 20260506115433 | 50 | 288 | 0.0 | 0.0 | 0.00 | 0.07 | 0.07 | 95 | 1007.0 |
| 20260506114931 | 50 | 36 | 1.0 | 1.0 | 0.07 | 0.07 | 0.07 | 95 | 1006.8 |
| 20260506114428 | 50 | 95 | 1.0 | 2.0 | 0.07 | 0.07 | 0.07 | 95 | 1006.8 |
| 20260506113927 | 50 | 57 | 1.0 | 1.0 | 0.00 | 0.06 | 0.06 | 95 | 1006.9 |
| 20260506113424 | 50 | 16 | 1.0 | 1.0 | 0.00 | 0.06 | 0.06 | 95 | 1007.0 |
| 20260506112915 | 50 | 348 | 1.0 | 1.0 | 0.00 | 0.06 | 0.06 | 95 | 1006.8 |
| 20260506112413 | 50 | 326 | 1.0 | 1.0 | 0.00 | 0.06 | 0.06 | 95 | 1007.1 |
| 20260506111910 | 50 | 291 | 0.0 | 0.0 | 0.05 | 0.06 | 0.06 | 94 | 1007.0 |
| 20260506111408 | 50 | 341 | 1.0 | 1.0 | 0.05 | 0.06 | 0.06 | 94 | 1007.1 |
| 20260506110905 | 50 | 27 | 1.0 | 1.0 | 0.00 | 0.05 | 0.05 | 94 | 1007.3 |
| 20260506110402 | 50 | 65 | 1.0 | 1.0 | 0.07 | 0.05 | 0.05 | 94 | 1007.1 |
| 20260506105858 | 50 | 105 | 1.0 | 1.0 | 0.07 | 0.05 | 0.05 | 94 | 1007.1 |
| 20260506105355 | 50 | 217 | 0.0 | 1.0 | 0.07 | 0.05 | 0.05 | 94 | 1007.2 |
| 20260506104853 | 50 | 258 | 0.0 | 0.0 | 0.05 | 0.04 | 0.04 | 94 | 1007.1 |
| 20260506104350 | 50 | 243 | 0.0 | 1.0 | 0.05 | 0.04 | 0.04 | 94 | 1007.2 |